Weather in Nanyuki

Kenya     0°00′38″N   37°04′45″E
temp.,
°C
wind,
m/s
gust,
m/s
humid.,
%
clouds,
%
prec.,
mm/h
press.,
hPa
HPBL,
m
11 may, tue
tue1100:00+15e019089 0.0 101711
03:00+14s1189100 0.0 101617
06:00+14sse118966 0.1 101724
09:00+16s238377 0.1 1018297
12:00+21nw22656 1.3 1015983
15:00+20nnw337298 4.4 1012858
18:00+16s129399 8.0 101464
21:00+15s3495100 15.0 1017175
12 may, wed
wed1200:00+14sw2497100 4.1 1019237
03:00+13sse3696100 10.6 1017224
06:00+14ssw1296100 2.5 1017101
09:00+14se1197100 14.3 101981
12:00+16nnw1289100 1.7 1018362
15:00+16sw1192100 4.1 1015253
18:00+15nw0194100 0.6 101643
21:00+15s1188100 0.6 101714
13 may, thu
thu1300:00+14sse119091 0.0 101816
03:00+14ene118896 0.1 101712
06:00+13s119096 0.0 101812
09:00+17nne117974 0.0 1018287
12:00+22nnw235941 0.1 10151221
15:00+24nne345398 0.3 10111837
18:00+19e238024 1.2 101348
21:00+14s2496100 4.8 1017118
14 may, fri
fri1400:00+15s3696100 1.2 1017217
03:00+14s369686 1.4 1015190
06:00+14sse249497 0.0 1016122
09:00+18sw117846 0.0 1017433
12:00+21sw226794 0.3 10151168
15:00+22wnw126234 1.2 10121202
18:00+19sse118026 1.1 101325
21:00+15s359416 1.4 1017129
15 may, sat
sat1500:00+14sse369496 0.0 1017169
03:00+13sse379299 0.0 1016160
06:00+12sse238970 0.0 101863
09:00+18s34777 0.0 1017387
12:00+23ssw22557 0.0 10141250
15:00+24wsw134911 0.1 10101919
18:00+18s478316 1.3 1013161
21:00+15s369213 1.3 1016121